FW1299 Weather Reports


Display with metric or nautical units.
time (UTC)temp
F
wind
direction
speed
MPH
gust
MPH
rain 1hr
in
rain 24hr
in
rain mn
in
humidity
%
barometer
mb
20260906193239 81 334 0.0 0.0 0.00 0.00 0.00 64 1014.7
20260906192240 80 181 0.0 1.0 0.00 0.00 0.00 67 1014.8
20260906191239 78 181 0.0 0.0 0.00 0.00 0.00 70 1014.9
20260906185236 78 181 0.0 0.0 0.00 0.00 0.00 70 1014.9
20260906183238 80 290 0.0 1.0 0.00 0.00 0.00 69 1014.9
20260906182237 80 71 0.0 2.0 0.00 0.00 0.00 65 1014.9
20260906181236 79 143 0.0 1.0 0.00 0.00 0.00 69 1015.0
20260906180234 80 23 0.0 2.0 0.00 0.00 0.00 67 1015.1
20260906175235 79 141 0.0 2.0 0.00 0.00 0.00 67 1015.1
20260906174230 80 278 0.0 2.0 0.00 0.00 0.00 66 1015.1
20260906173232 80 104 0.0 3.0 0.00 0.00 0.00 70 1015.3
20260906172232 78 77 0.0 2.0 0.00 0.00 0.00 72 1015.4
20260906170227 78 91 0.0 3.0 0.00 0.00 0.00 75 1015.5
20260906164226 80 89 0.0 5.0 0.00 0.00 0.00 69 1015.6
20260906163228 79 139 0.0 5.0 0.00 0.00 0.00 70 1015.5
20260906161221 78 184 0.0 2.0 0.00 0.00 0.00 73 1015.7
20260906160220 77 79 0.0 1.0 0.00 0.00 0.00 75 1015.7
20260906155220 75 44 0.0 1.0 0.00 0.00 0.00 75 1015.9
20260906154221 76 71 0.0 3.0 0.00 0.00 0.00 75 1015.9
20260906153220 76 68 0.0 2.0 0.00 0.00 0.00 77 1016.0
20260906152220 75 56 0.0 3.0 0.00 0.00 0.00 76 1015.9
20260906151220 74 317 0.0 4.0 0.00 0.00 0.00 79 1015.9
20260906150221 73 118 0.0 2.0 0.00 0.00 0.00 80 1015.8
20260906144220 74 188 0.0 2.0 0.00 0.00 0.00 77 1015.9
20260906143221 76 331 0.0 4.0 0.00 0.00 0.00 75 1015.9
20260906142221 75 350 0.0 3.0 0.00 0.00 0.00 79 1015.8
20260906140219 75 55 0.0 3.0 0.00 0.00 0.00 77 1015.6
20260906135221 75 330 0.0 4.0 0.00 0.00 0.00 78 1015.6
20260906134221 75 117 0.0 2.0 0.00 0.00 0.00 78 1015.5
20260906133215 75 27 0.0 2.0 0.00 0.00 0.00 79 1015.5
20260906131215 74 250 0.0 2.0 0.00 0.00 0.00 80 1015.4
20260906130217 74 266 0.0 1.0 0.00 0.00 0.00 80 1015.3
20260906125214 74 233 0.0 1.0 0.00 0.00 0.00 82 1015.2
20260906124214 73 233 0.0 0.0 0.00 0.00 0.00 83 1015.3
20260906123215 72 276 0.0 1.0 0.00 0.00 0.00 84 1015.0
20260906122214 71 85 0.0 0.0 0.00 0.00 0.00 86 1015.0
20260906121215 70 85 0.0 0.0 0.00 0.00 0.00 89 1015.0
20260906120215 68 85 0.0 1.0 0.00 0.00 0.00 92 1014.9
20260906115213 66 79 0.0 0.0 0.00 0.00 0.00 95 1014.8
20260906114212 65 79 0.0 0.0 0.00 0.00 0.00 96 1014.8
20260906113211 64 79 0.0 0.0 0.00 0.00 0.00 99 1014.7
20260906111212 61 79 0.0 0.0 0.00 0.00 0.00 100 1014.6
20260906105212 59 79 0.0 0.0 0.00 0.00 0.00 100 1014.2
20260906104214 59 79 0.0 0.0 0.00 0.00 0.00 99 1014.1
20260906103211 59 79 0.0 0.0 0.00 0.00 0.00 99 1013.9
20260906102210 59 79 0.0 0.0 0.00 0.00 0.00 99 1013.8
20260906100205 60 79 0.0 0.0 0.00 0.00 0.00 100 1013.5
20260906095204 60 79 0.0 0.0 0.00 0.00 0.00 100 1013.4
20260906094203 60 79 0.0 0.0 0.00 0.00 0.00 99 1013.4
20260906092203 60 79 0.0 0.0 0.00 0.00 0.00 99 1013.1
20260906091203 60 79 0.0 0.0 0.00 0.00 0.00 99 1013.1
20260906090203 60 79 0.0 0.0 0.00 0.00 0.00 100 1013.0
20260906085158 60 79 0.0 0.0 0.00 0.00 0.00 99 1013.0
20260906084156 60 79 0.0 0.0 0.00 0.00 0.00 99 1012.9
20260906083155 60 79 0.0 0.0 0.00 0.00 0.00 99 1012.8
20260906082156 61 79 0.0 0.0 0.00 0.00 0.00 99 1012.7
20260906080149 61 79 0.0 0.0 0.00 0.00 0.00 99 1012.6
20260906075150 61 79 0.0 0.0 0.00 0.00 0.00 99 1012.3
20260906074149 61 79 0.0 0.0 0.00 0.00 0.00 99 1012.3
20260906072147 61 79 0.0 0.0 0.00 0.00 0.00 99 1012.3
20260906071147 61 79 0.0 0.0 0.00 0.00 0.00 99 1012.4
20260906070147 60 79 0.0 0.0 0.00 0.00 0.00 99 1012.4
20260906064145 60 79 0.0 0.0 0.00 0.00 0.00 99 1012.5
20260906063146 60 79 0.0 0.0 0.00 0.00 0.00 99 1012.5
20260906062145 60 79 0.0 0.0 0.00 0.00 0.00 98 1012.4
20260906060146 61 79 0.0 0.0 0.00 0.00 0.00 98 1012.8
20260906055146 61 79 0.0 0.0 0.00 0.00 0.00 98 1012.8
20260906053146 61 79 0.0 0.0 0.00 0.00 0.00 97 1012.8
20260906052143 62 79 0.0 0.0 0.00 0.00 0.00 97 1012.8
20260906051143 62 79 0.0 0.0 0.00 0.00 0.00 97 1012.8
20260906050142 62 79 0.0 0.0 0.00 0.00 0.00 97 1012.7
20260906045143 62 79 0.0 0.0 0.00 0.00 0.00 97 1012.7
20260906044143 63 79 0.0 0.0 0.00 0.00 0.00 97 1012.8
20260906042143 64 79 0.0 0.0 0.00 0.00 0.00 97 1012.7
20260906035142 64 79 0.0 0.0 0.00 0.00 0.00 95 1012.5
20260906034142 64 79 0.0 0.0 0.00 0.00 0.00 95 1012.6
20260906033141 65 79 0.0 0.0 0.00 0.00 0.00 95 1012.5
20260906032143 65 79 0.0 0.0 0.00 0.00 0.00 96 1012.5
20260906031141 65 79 0.0 0.0 0.00 0.00 0.00 96 1012.4
20260906030141 65 79 0.0 0.0 0.00 0.00 0.00 96 1012.3
20260906025141 64 79 0.0 0.0 0.00 0.00 0.00 96 1012.4
20260906024139 64 79 0.0 0.0 0.00 0.00 0.00 96 1012.3
20260906022138 64 79 0.0 0.0 0.00 0.00 0.00 95 1012.3
20260906021136 65 79 0.0 0.0 0.00 0.00 0.00 94 1012.1
20260906020135 65 79 0.0 0.0 0.00 0.00 0.00 94 1012.4
20260906015132 65 79 0.0 0.0 0.00 0.00 0.00 94 1012.3
20260906014131 65 79 0.0 0.0 0.00 0.00 0.00 93 1012.2
20260906012133 65 79 0.0 0.0 0.00 0.00 0.00 92 1012.0
20260906011131 66 79 0.0 0.0 0.00 0.00 0.00 91 1011.9
20260906010131 66 79 0.0 0.0 0.00 0.00 0.00 91 1012.0
20260906005126 67 79 0.0 0.0 0.00 0.00 0.00 90 1011.8
20260906004127 67 79 0.0 0.0 0.00 0.00 0.00 90 1011.8
20260906003125 68 79 0.0 0.0 0.00 0.00 0.00 88 1011.4
20260906001125 69 79 0.0 0.0 0.00 0.00 0.00 85 1011.3
20260906000126 70 79 0.0 0.0 0.00 0.00 0.00 85 1011.1
20260905235126 71 79 0.0 0.0 0.00 0.00 0.00 81 1010.9
20260905234126 72 79 0.0 0.0 0.00 0.00 0.00 77 1010.9
20260905233126 73 79 0.0 0.0 0.00 0.00 0.00 75 1010.8
20260905232120 74 79 0.0 0.0 0.00 0.00 0.00 73 1010.8
20260905231119 75 79 0.0 1.0 0.00 0.00 0.00 72 1010.8
20260905230118 76 120 0.0 0.0 0.00 0.00 0.00 69 1010.7
20260905225121 78 120 0.0 1.0 0.00 0.00 0.00 68 1010.8
20260905224118 79 63 0.0 0.0 0.00 0.00 0.00 64 1010.7
20260905223119 81 69 0.0 1.0 0.00 0.00 0.00 62 1010.6
20260905222120 82 82 0.0 1.0 0.00 0.00 0.00 62 1010.8
20260905221120 82 81 0.0 4.0 0.00 0.00 0.00 60 1010.6
20260905220121 82 115 0.0 1.0 0.00 0.00 0.00 59 1010.5
20260905214120 83 254 0.0 4.0 0.00 0.00 0.00 59 1010.2
20260905213119 82 201 0.0 1.0 0.00 0.00 0.00 59 1010.3
20260905212120 83 63 0.0 3.0 0.00 0.00 0.00 61 1010.4
20260905211119 82 190 0.0 3.0 0.00 0.00 0.00 60 1010.3
20260905210121 83 218 0.0 3.0 0.00 0.00 0.00 59 1010.3
20260905204118 82 88 0.0 2.0 0.00 0.00 0.00 61 1010.3
20260905202118 82 76 0.0 1.0 0.00 0.00 0.00 65 1010.5
20260905201116 83 84 0.0 3.0 0.00 0.00 0.00 61 1010.4
20260905200119 83 169 1.0 4.0 0.00 0.00 0.00 64 1010.5
20260905195115 84 222 1.0 4.0 0.00 0.00 0.00 59 1010.4